Tracking 30157 objects as of 13-Feb-2025
HD Live streaming from Space Station
objects crossing your sky now

NNSS 19 (TRANSIT 19)

Track NNSS 19 (TRANSIT 19) now!
10-day predictions
NNSS 19 (TRANSIT 19) is classified as:


NORAD ID: 4507
Int'l Code: 1970-067A
Perigee: 945.4 km
Apogee: 1,204.5 km
Inclination: 90.0 °
Period: 106.6 minutes
Semi major axis: 7445 km
RCS: 1.5637 m2 (large)
Launch date: August 27, 1970
Source: United States (US)
Launch site: AIR FORCE WESTERN TEST RANGE (AFWTR)
Your satellite tracking list
Your tracking list is empty




NASA's NSSDC Master Catalog

Two Line Element Set (TLE):
1 04507U 70067A   25043.54405122  .00000199  00000-0  26289-3 0  9992
2 04507  89.9792 234.6989 0173942  91.6139 270.4944 13.51208900681271
Source of the keplerian elements: AFSPC